Total_Precipitation_Accumulation
1.03 0.80 1.24 1.29 1.11 0.97 1.00 1.02 0.94 0.84 0.87 0.80 0.63 0.58 0.59 0.57 0.48 0.40 0.33 0.27 0.27 0.27 0.30 0.33 0.34 0.39 0.36 0.31 0.34 0.43 0.45 0.40 0.36 0.35 0.45 0.52 0.55 0.62 0.70 0.80 1.06 1.29 0.93
0.86 0.75 1.27 1.38 1.22 1.04 0.95 0.97 1.02 0.93 0.98 0.87 0.76 0.67 0.63 0.57 0.48 0.38 0.29 0.24 0.25 0.26 0.28 0.30 0.35 0.37 0.36 0.38 0.42 0.47 0.44 0.35 0.29 0.35 0.56 0.71 0.65 0.61 0.61 0.68 1.05 1.22 0.89
0.71 0.68 0.99 1.37 1.29 1.12 1.01 0.97 1.05 1.03 1.05 0.97 0.91 0.80 0.68 0.58 0.50 0.41 0.33 0.32 0.32 0.29 0.29 0.30 0.42 0.42 0.39 0.46 0.47 0.48 0.45 0.33 0.30 0.42 0.79 1.39 1.02 0.63 0.57 0.68 0.91 0.81 0.80
0.70 0.67 0.80 1.16 1.14 1.05 0.99 1.02 1.11 1.09 1.16 1.10 0.92 0.75 0.60 0.58 0.59 0.50 0.45 0.52 0.38 0.30 0.29 0.34 0.44 0.47 0.44 0.46 0.49 0.46 0.47 0.45 0.48 0.56 0.97 1.40 1.42 0.89 0.77 0.91 0.93 0.81 0.87
0.74 0.70 0.96 1.23 1.18 1.10 1.03 1.14 1.24 1.22 1.25 1.09 0.81 0.64 0.59 0.61 0.66 0.68 0.67 0.64 0.42 0.34 0.31 0.35 0.44 0.48 0.45 0.44 0.44 0.40 0.41 0.50 0.67 0.79 1.08 1.33 1.58 1.13 0.91 0.97 0.96 0.87 0.97
0.74 0.72 0.94 1.21 1.17 1.14 1.10 1.19 1.26 1.32 1.31 1.19 0.89 0.70 0.67 0.74 0.74 0.73 0.79 0.65 0.54 0.46 0.40 0.41 0.46 0.49 0.44 0.42 0.44 0.42 0.47 0.56 0.64 0.89 1.17 1.41 1.48 1.09 0.87 0.93 0.97 1.07 1.07
0.73 0.67 0.74 1.00 1.05 1.05 1.10 1.27 1.33 1.38 1.39 1.30 1.05 0.88 0.77 0.75 0.75 0.77 0.83 0.70 0.63 0.55 0.53 0.55 0.54 0.52 0.49 0.47 0.45 0.44 0.47 0.49 0.55 0.78 1.02 1.45 1.31 0.95 0.82 0.89 0.93 1.01 1.05
0.90 0.76 0.69 0.83 0.92 0.98 1.05 1.17 1.24 1.27 1.27 1.23 1.06 0.92 0.85 0.81 0.77 0.84 0.90 0.80 0.72 0.63 0.57 0.59 0.59 0.58 0.56 0.53 0.49 0.48 0.48 0.42 0.41 0.60 0.85 1.22 1.21 1.03 0.87 0.92 1.04 1.02 1.04
1.09 0.97 0.80 0.75 0.82 0.98 1.11 1.13 1.11 1.09 1.11 1.09 0.99 0.94 0.87 0.83 0.76 0.78 0.82 0.76 0.75 0.75 0.70 0.64 0.62 0.62 0.58 0.56 0.54 0.54 0.51 0.43 0.46 0.57 0.63 1.04 1.10 1.05 0.92 0.94 1.08 1.15 1.16
1.28 1.09 0.87 0.74 0.74 0.78 0.84 0.98 1.08 1.11 1.10 1.09 0.98 0.88 0.83 0.77 0.69 0.71 0.67 0.64 0.70 0.80 0.87 0.79 0.69 0.66 0.62 0.57 0.55 0.57 0.55 0.41 0.44 0.53 0.66 0.80 0.97 1.04 0.96 0.85 0.86 0.91 0.99
1.07 0.98 0.99 0.94 0.90 0.89 0.82 0.87 1.06 1.15 1.16 1.05 0.98 0.92 0.83 0.64 0.55 0.61 0.58 0.69 0.78 0.92 0.97 0.94 0.86 0.74 0.66 0.57 0.55 0.57 0.46 0.35 0.47 0.54 0.67 0.69 0.93 1.05 0.98 0.81 0.75 0.71 0.80
0.78 0.79 0.84 0.88 0.95 0.96 0.86 1.05 1.29 1.17 1.04 0.84 0.87 0.79 0.76 0.71 0.69 0.57 0.60 0.77 0.91 0.94 0.93 0.96 0.98 0.85 0.66 0.48 0.51 0.50 0.34 0.32 0.38 0.42 0.50 0.67 0.89 1.00 0.98 0.89 0.76 0.67 0.71
0.68 0.67 0.65 0.70 0.79 0.87 1.00 1.21 1.52 1.56 1.33 1.15 0.97 0.90 0.86 0.76 0.68 0.63 0.62 0.68 0.75 0.78 0.68 0.73 0.77 0.64 0.54 0.52 0.54 0.43 0.33 0.33 0.34 0.39 0.52 0.73 0.94 1.03 0.97 0.91 0.86 0.77 0.73
0.54 0.58 0.50 0.46 0.60 0.69 0.80 0.92 1.21 1.28 1.21 1.08 0.91 0.84 0.90 0.85 0.75 0.71 0.68 0.73 0.73 0.72 0.77 0.79 0.83 0.75 0.60 0.53 0.54 0.55 0.47 0.39 0.41 0.52 0.64 0.70 0.93 1.07 1.03 0.98 0.93 0.86 0.80
0.57 0.60 0.55 0.47 0.48 0.51 0.56 0.63 0.76 0.92 1.03 1.03 0.99 0.83 0.82 0.81 0.76 0.78 0.73 0.77 0.70 0.68 0.75 0.81 0.81 0.83 0.74 0.62 0.57 0.57 0.64 0.56 0.51 0.55 0.69 0.79 1.00 1.19 1.25 1.17 1.04 0.97 0.95
0.51 0.63 0.63 0.53 0.49 0.50 0.47 0.47 0.48 0.61 0.76 0.92 0.94 0.83 0.85 0.86 0.81 0.86 0.83 0.83 0.79 0.73 0.75 0.91 0.84 0.88 0.87 0.80 0.63 0.60 0.62 0.58 0.54 0.56 0.66 0.89 0.97 1.01 1.23 1.40 1.33 1.19 1.06
0.45 0.50 0.57 0.55 0.57 0.60 0.59 0.59 0.49 0.52 0.59 0.73 0.85 0.84 0.90 0.85 0.77 0.82 0.85 0.82 0.81 0.82 0.82 0.87 0.89 0.94 0.84 0.78 0.70 0.64 0.61 0.55 0.49 0.54 0.58 0.66 0.65 0.69 0.90 1.19 1.39 1.34 1.24
0.47 0.50 0.55 0.56 0.63 0.68 0.74 0.75 0.69 0.74 0.76 0.77 0.92 0.89 0.84 0.87 0.84 0.84 0.90 0.91 0.95 0.99 0.96 0.96 0.99 1.00 0.95 0.92 0.87 0.79 0.64 0.62 0.55 0.57 0.57 0.57 0.61 0.56 0.66 0.79 1.00 1.15 1.29
0.43 0.44 0.48 0.56 0.61 0.64 0.72 0.85 0.98 1.02 1.02 0.98 1.01 0.97 0.87 0.85 0.91 1.03 1.06 1.11 1.09 1.10 1.12 1.08 1.10 1.03 1.01 0.99 0.89 0.85 0.74 0.71 0.67 0.58 0.66 0.67 0.68 0.61 0.63 0.58 0.62 0.69 0.89
0.34 0.36 0.41 0.49 0.65 0.79 0.87 0.92 1.08 1.13 1.21 1.30 1.35 1.22 1.09 1.10 1.22 1.36 1.45 1.40 1.38 1.37 1.35 1.30 1.38 1.27 1.08 1.05 0.98 0.89 0.75 0.70 0.75 0.70 0.72 0.74 0.77 0.75 0.69 0.58 0.50 0.44 0.53
0.22 0.28 0.33 0.39 0.55 0.69 0.79 0.91 1.10 1.28 1.46 1.62 1.74 1.63 1.49 1.45 1.61 1.72 1.65 1.73 1.77 1.62 1.61 1.66 1.71 1.65 1.39 1.25 1.30 1.16 0.89 0.67 0.73 0.73 0.72 0.76 0.83 0.95 0.98 0.84 0.66 0.56 0.48
0.14 0.17 0.23 0.30 0.42 0.55 0.70 0.93 1.16 1.45 1.54 1.63 1.77 1.82 1.76 1.69 1.84 1.88 1.95 2.02 2.05 2.03 1.99 1.88 1.95 2.03 1.77 1.54 1.62 1.86 1.45 1.05 0.74 0.62 0.71 0.74 0.84 1.08 1.16 1.01 0.80 0.68 0.59
0.10 0.11 0.18 0.29 0.44 0.66 0.88 1.19 1.49 1.73 1.81 1.86 1.81 1.88 1.97 2.02 2.08 2.10 2.16 2.22 2.21 2.06 2.04 2.13 2.23 2.53 2.32 1.98 1.80 2.02 1.78 1.45 1.18 0.78 0.72 0.78 0.87 1.05 1.18 1.22 1.09 0.98 0.85
0.12 0.16 0.26 0.42 0.62 0.90 1.23 1.58 1.81 2.04 2.14 1.99 1.97 2.01 2.03 1.98 2.01 2.12 2.13 2.13 2.09 2.02 2.08 2.15 2.18 2.54 2.71 2.40 2.09 1.76 1.53 1.49 1.51 1.21 0.89 0.83 0.92 0.94 1.05 1.14 1.10 1.16 1.12
0.25 0.32 0.48 0.72 1.01 1.29 1.52 1.69 1.91 2.04 2.06 2.04 2.00 2.00 1.93 1.91 1.87 1.91 1.93 2.01 2.04 2.07 2.12 2.27 2.37 2.61 2.62 2.61 2.43 2.24 2.02 1.72 1.37 1.38 1.31 1.07 1.02 0.93 1.03 1.17 1.23 1.30 1.27
0.42 0.55 0.73 0.91 1.19 1.36 1.47 1.60 1.79 1.93 1.97 2.00 1.98 1.99 1.98 1.95 1.85 1.79 1.76 1.82 1.94 2.11 2.17 2.24 2.37 2.60 2.70 2.77 2.68 2.43 2.32 2.14 1.83 1.68 1.43 1.30 1.27 1.10 1.08 1.11 1.16 1.27 1.37